[[{"header":{"parameterUnit":"m.s-1","parameterCategory":1,"la1":30.2991,"la2":30.254,"lo1":-89.0895,"lo2":-89.0444,"dy":0.0017,"dx":0.0017,"nx":28,"ny":28,"refTime":"2024-04-18T09:00:00:Z","depth":0,"parameterNumber":2,"parameterNumberName":"U-component_of_WINDS"},"data":[0,0,0,0,0,0,0,0,0,0,0,0,0,0,0,0,0,0,0,0,0,0,0,0,0,0,0,0,0,0,0,0,0,0,0,0,0,0,0,0,0,0,0,0,0,0,0,0,0,0,0,0,0,0,0,0,0,0,-5.3233,-5.3233,0,-5.3204,-5.3203,-5.3203,-5.3095,-5.3093,-5.3091,-5.3088,-5.306,-5.3062,-5.3063,0,0,0,0,0,0,0,0,0,0,0,0,0,-5.3199,-5.32,-5.3233,-5.3233,-5.3232,-5.3204,-5.3203,-5.3203,-5.3096,-5.3093,-5.309,-5.3087,-5.306,-5.3061,-5.3063,0,0,0,0,0,0,0,0,0,0,0,0,0,-5.3197,-5.3201,-5.3233,-5.3175,-5.317,-5.3204,-5.3203,-5.3203,-5.3096,-5.3093,-5.3089,-5.3086,-5.3059,-5.3061,-5.3063,-5.3151,0,0,-5.3071,-5.3072,0,0,0,0,0,0,0,0,-5.3197,-5.3198,-5.3184,-5.3179,-5.3173,-5.3149,-5.3181,-5.3186,-5.3097,-5.3124,-5.3088,-5.3084,-5.3093,-5.3092,-5.3095,-5.315,-5.3149,-5.3071,-5.3072,-5.3073,-5.3074,0,0,0,0,0,0,0,-5.3197,-5.3199,-5.3221,-5.3184,-5.3178,-5.3152,-5.3147,-5.3181,-5.313,-5.3122,-5.3114,-5.3112,-5.3089,-5.3093,-5.3093,-5.3148,-5.3071,-5.3073,-5.3074,-5.3075,-5.3275,-5.3278,0,0,0,0,0,0,-5.3205,-5.3199,-5.3222,-5.3221,-5.3176,-5.3156,-5.3151,-5.3161,-5.3129,-5.3121,-5.3115,-5.3107,-5.3091,-5.3091,-5.3092,-5.3192,-5.3073,-5.3075,-5.3077,-5.3271,-5.3276,-5.328,0,0,0,0,0,0,-5.3205,-5.3208,-5.3224,-5.3208,-5.3208,-5.316,-5.3173,-5.3162,-5.3165,-5.3124,-5.3114,-5.3128,-5.3088,-5.3089,-5.3137,-5.3189,-5.3076,-5.3078,-5.3266,-5.3272,-5.3278,-5.3393,0,0,0,0,0,0,-5.3204,-5.3209,-5.3241,-5.3209,-5.3209,-5.3269,-5.3176,-5.3164,-5.317,-5.3159,-5.3133,-5.3126,-5.3085,-5.3134,-5.314,-5.319,-5.308,-5.3261,-5.3269,-5.3276,-5.3384,-5.3402,-5.3418,0,0,0,0,0,-5.3204,-5.3275,-5.3243,-5.3246,-5.3248,-5.3272,-5.3272,-5.3223,-5.3174,-5.3206,-5.318,-5.3127,-5.3184,-5.314,-5.3145,-5.3198,-5.3258,-5.3267,-5.3275,-5.3377,-5.3399,-5.3417,0,0,0,0,0,0,-5.3314,-5.3269,-5.3234,-5.3297,-5.3289,-5.3254,-5.3292,-5.3248,-5.3254,-5.3243,-5.3183,-5.3178,-5.3236,-5.3222,-5.3174,-5.3281,-5.3212,-5.3222,-5.3287,-5.3308,-5.3324,-5.3325,-5.3082,0,0,0,0,0,-5.3345,-5.3368,-5.3328,-5.3388,-5.3386,-5.3341,-5.3349,-5.3312,-5.3302,-5.3298,-5.3275,-5.3268,-5.3284,-5.3295,-5.3308,-5.3383,-5.3376,-5.3422,-5.3439,-5.3452,-5.3461,-5.3499,-5.3519,-5.3309,-5.3309,-5.3309,0,0,-5.3411,-5.339,-5.3407,-5.341,-5.3399,-5.3424,-5.3338,-5.3368,-5.3386,-5.3303,-5.3346,-5.333,-5.3318,-5.338,-5.3406,-5.337,-5.3518,-5.3464,-5.3475,-5.3476,-5.351,-5.353,-5.3548,-5.3315,-5.3314,-5.3313,0,0,-5.3542,-5.3529,-5.3576,-5.3568,-5.3554,-5.3523,-5.3535,-5.3507,-5.3493,-5.3536,-5.3474,-5.3496,-5.3525,-5.3518,-5.3519,-5.3652,-5.3602,-5.3658,-5.3743,-5.3781,-5.3798,-5.3812,-5.3858,-5.3875,-5.3667,-5.3668,-5.3668,0,-5.3625,-5.3659,-5.3607,-5.3641,-5.3644,-5.357,-5.3619,-5.3613,-5.3604,-5.3608,-5.3569,-5.3604,-5.3591,-5.365,-5.3683,-5.3687,-5.3698,-5.3659,-5.38,-5.3814,-5.3826,-5.3869,-5.3887,-5.3674,-5.3673,-5.3673,-5.3672,0,-5.3762,-5.3787,-5.3828,-5.382,-5.3828,-5.387,-5.3824,-5.3839,-5.3803,-5.3777,-5.3823,-5.3805,-5.3812,-5.3825,-5.379,-5.388,-5.3858,-5.381,-5.3738,-5.3854,-5.3893,-5.3909,-5.3684,-5.3681,-5.3679,-5.3678,0,0,-5.3958,-5.3923,-5.3938,-5.3934,-5.3914,-5.3932,-5.3972,-5.3979,-5.3992,-5.399,-5.402,-5.4048,-5.4004,-5.4005,-5.3969,-5.4003,-5.4108,-5.3951,-5.395,-5.3979,-5.4205,-5.424,-5.4259,-5.4077,-5.408,-5.4082,-5.4206,0,-5.4082,-5.4144,-5.4099,-5.417,-5.4193,-5.4125,-5.4158,-5.415,-5.4129,-5.4145,-5.4122,-5.4141,-5.4082,-5.4083,-5.4114,-5.4089,-5.4152,-5.408,-5.4104,-5.4106,-5.4107,-5.428,-5.4316,-5.4433,-5.4221,-5.4224,-5.4226,0,-5.4233,-5.4236,-5.4309,-5.4285,-5.4293,-5.4324,-5.4327,-5.4344,-5.4335,-5.4316,-5.4319,-5.4275,-5.4312,-5.4245,-5.4295,-5.4247,-5.4255,-5.4245,-5.4248,-5.4246,-5.4171,-5.4281,-5.447,-5.4487,-5.425,-5.4248,-5.4246,0,-5.4367,-5.439,-5.4436,-5.4435,-5.4409,-5.4432,-5.4422,-5.4409,-5.4416,-5.442,-5.4425,-5.4434,-5.4438,-5.4446,-5.4406,-5.4361,-5.4462,-5.4391,-5.4447,-5.4448,-5.4469,-5.4468,-5.4659,-5.4479,-5.4479,-5.4479,-5.4478,0,-5.4507,-5.4554,-5.4496,-5.4524,-5.4576,-5.4525,-5.4577,-5.456,-5.455,-5.4574,-5.4517,-5.4541,-5.4488,-5.4507,-5.4477,-5.4523,-5.4526,-5.4512,-5.4503,-5.4516,-5.4517,-5.4518,-5.4508,-5.4483,-5.4482,-5.4481,-5.448,0,-5.4664,-5.4627,-5.4673,-5.4645,-5.4639,-5.4678,-5.4653,-5.4679,-5.4654,-5.4686,-5.4691,-5.4652,-5.4672,-5.4634,-5.4649,-5.4629,-5.4693,-5.4673,-5.4696,-5.4689,-5.4747,-5.4741,-5.4943,-5.4967,-5.4774,-5.4776,-5.4778,0,-5.4755,-5.4789,-5.4765,-5.4777,-5.477,-5.4791,-5.4798,-5.4751,-5.4761,-5.4754,-5.4781,-5.4796,-5.4805,-5.4841,-5.4814,-5.4826,-5.4804,-5.4874,-5.4805,-5.4817,-5.4803,-5.48,-5.4803,-5.4887,-5.489,-5.4892,-5.4893,0,-5.492,-5.49,-5.4913,-5.492,-5.493,-5.4934,-5.4933,-5.4947,-5.4897,-5.4912,-5.4931,-5.4939,-5.4954,-5.497,-5.4976,-5.4966,-5.4922,-5.4916,-5.4929,-5.4941,-5.4952,-5.4945,-5.4732,-5.491,-5.4909,-5.4907,-5.4906,-5.4906,-5.5045,-5.5072,-5.5059,-5.5076,-5.5071,-5.5072,-5.5094,-5.5073,-5.5088,-5.5096,-5.5069,-5.5095,-5.5085,-5.5088,-5.5084,-5.5104,-5.5073,-5.5093,-5.5097,-5.5102,-5.5111,-5.4952,-5.5106,-5.5105,-5.5105,-5.5104,-5.5104,0,-5.5205,-5.5194,-5.521,-5.521,-5.5224,-5.5182,-5.5179,-5.5193,-5.5217,-5.5212,-5.5222,-5.5245,-5.5261,-5.5237,-5.5249,-5.527,-5.5249,-5.5274,-5.5271,-5.5269,-5.5139,-5.5125,-5.529,-5.529,-5.529,-5.529,-5.529,-5.529,-5.529,-5.5333,-5.5313,-5.5355,-5.5343,-5.5368,-5.537,-5.5371,-5.5367,-5.5395,-5.5407,-5.5392,-5.5379,-5.539,-5.5403,-5.5395,-5.5402,-5.5433,-5.5419,-5.5297,-5.5278,-5.5261,-5.5248,-5.5435,-5.5436,-5.5547,-5.5548,-5.5549]},{"header":{"parameterUnit":"m.s-1","parameterCategory":1,"la1":30.2991,"la2":30.254,"lo1":-89.0895,"lo2":-89.0444,"dy":0.0017,"dx":0.0017,"nx":28,"ny":28,"refTime":"2024-04-18T09:00:00:Z","depth":0,"parameterNumber":3,"parameterNumberName":"V-component_of_WINDS"},"data":[0,0,0,0,0,0,0,0,0,0,0,0,0,0,0,0,0,0,0,0,0,0,0,0,0,0,0,0,0,0,0,0,0,0,0,0,0,0,0,0,0,0,0,0,0,0,0,0,0,0,0,0,0,0,0,0,0,0,4.1934,4.1935,0,4.2058,4.2059,4.206,4.2059,4.2057,4.2056,4.2054,4.218,4.2185,4.219,0,0,0,0,0,0,0,0,0,0,0,0,0,4.1696,4.1701,4.1934,4.1935,4.1937,4.2057,4.2059,4.2061,4.2059,4.2057,4.2055,4.2053,4.2178,4.2184,4.219,0,0,0,0,0,0,0,0,0,0,0,0,0,4.1808,4.1702,4.1934,4.1951,4.1953,4.2057,4.2059,4.2061,4.206,4.2057,4.2055,4.2052,4.2176,4.2184,4.2191,4.2285,0,0,4.2213,4.2216,0,0,0,0,0,0,0,0,4.1801,4.1816,4.1947,4.195,4.1953,4.204,4.2021,4.2136,4.206,4.2019,4.2054,4.2051,4.2135,4.2146,4.2175,4.2291,4.2296,4.2214,4.2218,4.2221,4.2223,0,0,0,0,0,0,0,4.1794,4.1811,4.1983,4.1949,4.1952,4.1952,4.1965,4.2043,4.209,4.2023,4.2023,4.2038,4.2137,4.2167,4.2177,4.2298,4.2214,4.222,4.2225,4.2227,4.2499,4.2502,0,0,0,0,0,0,4.1782,4.1805,4.1979,4.1986,4.187,4.1958,4.1973,4.2015,4.2089,4.2098,4.2039,4.2037,4.2156,4.2169,4.2182,4.2298,4.2221,4.2228,4.2232,4.2496,4.25,4.2503,0,0,0,0,0,0,4.1777,4.1798,4.1974,4.1896,4.1918,4.1965,4.2012,4.2018,4.2049,4.2102,4.211,4.2062,4.2155,4.2172,4.226,4.2302,4.2231,4.2238,4.2493,4.2498,4.2501,4.253,0,0,0,0,0,0,4.1771,4.1796,4.1833,4.1897,4.1922,4.205,4.2015,4.2023,4.2062,4.206,4.2125,4.2134,4.2154,4.2249,4.2267,4.2311,4.2244,4.249,4.2495,4.25,4.2526,4.2535,4.2543,0,0,0,0,0,4.1762,4.1835,4.1834,4.1855,4.1969,4.2052,4.2067,4.2089,4.2065,4.2102,4.2136,4.2132,4.2295,4.2258,4.2278,4.2325,4.2487,4.2494,4.25,4.2522,4.2533,4.2543,0,0,0,0,0,0,4.1775,4.1844,4.1844,4.194,4.199,4.2052,4.2099,4.21,4.2158,4.2154,4.2179,4.2193,4.2282,4.2312,4.227,4.2421,4.2388,4.2399,4.2398,4.2409,4.2417,4.2408,4.225,0,0,0,0,0,4.1789,4.1851,4.1908,4.1988,4.2013,4.2052,4.2089,4.2102,4.2155,4.2176,4.2216,4.2267,4.233,4.2371,4.2432,4.253,4.2544,4.2572,4.2581,4.2588,4.2597,4.2652,4.2665,4.2524,4.2524,4.2524,0,0,4.1818,4.1864,4.1902,4.1991,4.2032,4.2096,4.207,4.2138,4.2186,4.2186,4.2272,4.2303,4.2362,4.2456,4.25,4.2484,4.2639,4.2596,4.2601,4.2606,4.2659,4.2673,4.2685,4.2528,4.2527,4.2527,0,0,4.1905,4.1946,4.2017,4.2058,4.212,4.2145,4.2162,4.2224,4.2245,4.2332,4.2333,4.239,4.2498,4.254,4.2576,4.2679,4.2677,4.2698,4.2743,4.2796,4.2807,4.2817,4.2855,4.2868,4.2707,4.2707,4.2707,0,4.1934,4.2031,4.2053,4.2122,4.2162,4.2165,4.2238,4.2276,4.2355,4.2382,4.2364,4.25,4.254,4.2644,4.2669,4.2697,4.2718,4.2691,4.2804,4.2814,4.2824,4.286,4.2874,4.2709,4.2709,4.2709,4.2709,0,4.2063,4.213,4.218,4.2256,4.2301,4.2372,4.2405,4.2448,4.2457,4.2484,4.2572,4.2621,4.2692,4.2717,4.2726,4.2823,4.2812,4.2799,4.2766,4.2839,4.2873,4.2887,4.2712,4.2712,4.2711,4.271,0,0,4.2162,4.2249,4.2268,4.2302,4.2371,4.2423,4.2494,4.2563,4.26,4.2654,4.2714,4.2805,4.2794,4.2834,4.2848,4.2895,4.2974,4.2876,4.2878,4.2893,4.3084,4.3094,4.3109,4.2973,4.2976,4.2978,4.3079,0,4.2256,4.2382,4.2404,4.2514,4.2576,4.2581,4.2642,4.2691,4.2719,4.2775,4.2806,4.287,4.285,4.2874,4.2921,4.2955,4.3013,4.2948,4.303,4.3032,4.3015,4.3127,4.3138,4.3231,4.3093,4.3095,4.3097,0,4.2383,4.2441,4.2557,4.2618,4.2645,4.2699,4.2765,4.282,4.2875,4.2892,4.2937,4.2946,4.302,4.2984,4.3086,4.3041,4.3076,4.3097,4.3101,4.311,4.3069,4.3139,4.3261,4.3275,4.3118,4.3116,4.3115,0,4.2444,4.255,4.2634,4.2663,4.2736,4.2775,4.2807,4.286,4.2901,4.2958,4.2985,4.305,4.3086,4.3136,4.3162,4.3133,4.3263,4.3228,4.3279,4.3278,4.3306,4.3304,4.3435,4.3328,4.3327,4.3327,4.3327,0,4.2547,4.2618,4.2662,4.2713,4.2793,4.2818,4.2896,4.2928,4.2975,4.3033,4.304,4.3094,4.3125,4.3184,4.3205,4.3286,4.3302,4.3318,4.3323,4.3318,4.3316,4.3341,4.3336,4.3331,4.333,4.3329,4.3329,0,4.2628,4.2661,4.2752,4.2814,4.2831,4.2887,4.294,4.299,4.3017,4.309,4.3109,4.3152,4.3221,4.3252,4.3338,4.3352,4.3445,4.3445,4.3426,4.3428,4.3477,4.3472,4.3629,4.3652,4.3529,4.353,4.3531,0,4.2693,4.2747,4.2815,4.2854,4.2888,4.2951,4.2992,4.3019,4.3062,4.313,4.3172,4.3241,4.3299,4.3409,4.3448,4.3513,4.3515,4.3566,4.3525,4.3519,4.3517,4.3514,4.3519,4.3573,4.3575,4.3576,4.3576,0,4.2803,4.2817,4.2876,4.2942,4.2992,4.3045,4.3096,4.3128,4.3163,4.3211,4.3282,4.3326,4.3414,4.3483,4.3551,4.3584,4.3587,4.3589,4.3604,4.36,4.3587,4.3595,4.3447,4.3585,4.3584,4.3584,4.3583,4.3583,4.2879,4.2928,4.2983,4.305,4.3091,4.314,4.319,4.3224,4.3284,4.3357,4.3369,4.3445,4.35,4.3592,4.3627,4.3687,4.3675,4.3697,4.3702,4.3708,4.3711,4.3577,4.3699,4.3699,4.3699,4.3699,4.3699,0,4.299,4.3026,4.3087,4.316,4.3212,4.3209,4.3267,4.3311,4.3378,4.3428,4.3485,4.3567,4.3634,4.3678,4.3746,4.3786,4.3788,4.3803,4.38,4.3808,4.3717,4.3698,4.3799,4.3799,4.3799,4.3799,4.3799,4.3799,4.3054,4.3138,4.3158,4.3262,4.3297,4.3372,4.3405,4.345,4.3491,4.3582,4.3638,4.3666,4.3715,4.3786,4.3848,4.3859,4.3884,4.3899,4.391,4.3825,4.3814,4.3804,4.3786,4.3904,4.3904,4.3996,4.3996,4.3997]}]]